CW2157 Weather Reports


time (UTC)temp
C
wind
direction
speed
KPH
gust
KPH
rain 1hr
cm
rain 24hr
cm
rain mn
cm
humidity
%
barometer
mb
20260901081705 24 232 3.2 8.0 0.00 0.00 0.00 92 1014.9
20260901080705 24 286 4.8 9.7 0.00 0.00 0.00 92 1015.1
20260901080205 24 241 4.8 11.3 0.00 0.00 0.00 93 1015.0
20260901075205 25 236 6.4 9.7 0.00 0.00 0.00 93 1015.1
20260901074705 25 237 6.4 9.7 0.00 0.00 0.00 93 1015.1
20260901074205 25 214 0.0 3.2 0.00 0.00 0.00 93 1015.1
20260901072705 25 237 1.6 3.2 0.00 0.00 0.00 93 1015.1
20260901072205 25 257 3.2 4.8 0.00 0.00 0.00 93 1015.2
20260901071704 25 250 0.0 3.2 0.00 0.00 0.00 93 1015.2
20260901071204 25 322 0.0 4.8 0.00 0.00 0.00 93 1015.2
20260901070705 25 238 1.6 4.8 0.00 0.00 0.00 93 1015.2
20260901070205 24 245 1.6 4.8 0.00 0.00 0.00 93 1015.3
20260901065704 24 258 0.0 1.6 0.00 0.00 0.00 93 1015.3
20260901065205 24 257 4.8 8.0 0.00 0.00 0.00 93 1015.3
20260901064705 24 209 8.0 9.7 0.00 0.00 0.00 92 1015.3
20260901063705 24 196 4.8 4.8 0.00 0.00 0.00 92 1015.3
20260901063205 24 146 0.0 3.2 0.00 0.00 0.00 92 1015.4
20260901062704 24 146 0.0 1.6 0.00 0.00 0.00 91 1015.3
20260901062205 24 146 0.0 1.6 0.00 0.00 0.00 91 1015.3
20260901061705 24 146 0.0 1.6 0.00 0.00 0.00 91 1015.4
20260901061205 24 146 0.0 1.6 0.00 0.00 0.00 91 1015.4
20260901060704 24 146 0.0 0.0 0.00 0.00 0.00 91 1015.5
20260901060205 24 146 0.0 1.6 0.00 0.00 0.00 91 1015.5
20260901055705 24 146 1.6 3.2 0.00 0.00 0.00 91 1015.5
20260901055204 24 146 1.6 3.2 0.00 0.00 0.00 91 1015.6
20260901054704 24 146 0.0 1.6 0.00 0.00 0.00 90 1015.7
20260901054204 24 146 0.0 3.2 0.00 0.00 0.00 90 1015.7
20260901053705 24 146 1.6 3.2 0.00 0.00 0.00 90 1015.9
20260901053205 24 146 0.0 1.6 0.00 0.00 0.00 90 1015.9
20260901052704 24 146 0.0 3.2 0.00 0.00 0.00 89 1015.8
20260901052205 24 146 1.6 3.2 0.00 0.00 0.00 89 1016.0
20260901051705 24 146 1.6 3.2 0.00 0.00 0.00 89 1015.9
20260901051204 24 146 1.6 3.2 0.00 0.00 0.00 89 1015.9
20260901050705 24 146 1.6 3.2 0.00 0.00 0.00 89 1016.1
20260901050204 24 146 0.0 0.0 0.00 0.00 0.00 89 1016.3
20260901045705 24 146 0.0 0.0 0.00 0.00 0.00 89 1016.4
20260901045204 25 146 0.0 0.0 0.00 0.00 0.00 88 1016.3
20260901044705 25 146 1.6 3.2 0.00 0.00 0.00 88 1016.3
20260901044204 25 146 1.6 3.2 0.00 0.00 0.00 88 1016.4
20260901043205 25 146 1.6 3.2 0.00 0.00 0.00 88 1016.4
20260901042705 25 146 1.6 3.2 0.00 0.00 0.00 88 1016.5
20260901042205 25 146 1.6 3.2 0.00 0.00 0.00 88 1016.4
20260901041704 25 146 1.6 3.2 0.00 0.00 0.00 87 1016.4
20260901041205 25 146 1.6 3.2 0.00 0.00 0.00 87 1016.4
20260901040705 25 146 1.6 3.2 0.00 0.00 0.00 87 1016.4
20260901040204 25 146 1.6 4.8 0.00 0.00 0.00 87 1016.5
20260901035705 25 146 3.2 4.8 0.00 0.00 0.00 87 1016.5
20260901035204 25 169 1.6 4.8 0.00 0.00 0.00 87 1016.5
20260901034705 25 166 1.6 3.2 0.00 0.00 0.00 87 1016.4
20260901034204 25 166 0.0 3.2 0.00 0.00 0.00 87 1016.4
20260901033704 25 136 3.2 4.8 0.00 0.00 0.00 87 1016.4
20260901033204 25 126 1.6 4.8 0.00 0.00 0.00 87 1016.3
20260901032705 25 146 3.2 4.8 0.00 0.00 0.00 87 1016.3
20260901032205 25 153 3.2 8.0 0.00 0.00 0.00 87 1016.3
20260901030705 25 164 4.8 8.0 0.00 0.00 0.00 87 1015.9
20260901030205 25 162 4.8 8.0 0.00 0.00 0.00 86 1015.9
20260901025705 25 174 3.2 8.0 0.00 0.00 0.00 86 1016.0
20260901025205 25 165 4.8 8.0 0.00 0.00 0.00 86 1016.0
20260901024704 25 194 6.4 11.3 0.00 0.00 0.00 86 1016.1
20260901024204 25 183 4.8 12.9 0.00 0.00 0.00 86 1016.0
20260901023705 25 178 4.8 11.3 0.00 0.00 0.00 86 1016.0
20260901023205 25 190 4.8 14.5 0.00 0.00 0.00 86 1016.0
20260901022704 25 172 6.4 9.7 0.00 0.00 0.00 86 1015.9
20260901022204 25 170 6.4 12.9 0.00 0.00 0.00 85 1016.0
20260901021705 25 190 8.0 12.9 0.00 0.00 0.00 85 1016.0
20260901021204 25 191 8.0 12.9 0.00 0.00 0.00 86 1016.0
20260901020705 25 169 6.4 9.7 0.00 0.00 0.00 85 1016.1
20260901020205 25 186 8.0 11.3 0.00 0.00 0.00 85 1016.2
20260901015705 25 167 8.0 12.9 0.00 0.00 0.00 85 1016.3
20260901015204 25 175 8.0 12.9 0.00 0.00 0.00 85 1016.3
20260901014705 25 185 6.4 11.3 0.00 0.00 0.00 85 1016.4
20260901014204 25 163 4.8 11.3 0.00 0.00 0.00 85 1016.5
20260901013705 25 176 8.0 11.3 0.00 0.00 0.00 85 1016.5
20260901013205 25 187 8.0 11.3 0.00 0.00 0.00 85 1016.4
20260901012705 25 178 6.4 14.5 0.00 0.00 0.00 85 1016.4
20260901011204 25 179 4.8 11.3 0.00 0.00 0.00 84 1016.3
20260901010704 25 174 4.8 12.9 0.00 0.00 0.00 85 1016.3
20260901005704 25 139 6.4 14.5 0.00 0.00 0.00 85 1016.3
20260901005204 25 159 8.0 12.9 0.00 0.00 0.00 85 1016.3
20260901004204 26 153 4.8 11.3 0.00 0.00 0.00 84 1016.4
20260901003704 26 172 3.2 9.7 0.00 0.00 0.00 84 1016.4
20260901003204 26 157 4.8 11.3 0.00 0.00 0.00 84 1016.4
20260901002705 26 120 3.2 8.0 0.00 0.00 0.00 84 1016.3
20260901002205 26 137 4.8 11.3 0.00 0.00 0.00 83 1016.2
20260901001705 26 141 3.2 4.8 0.00 0.00 0.00 83 1016.2
20260901001204 26 131 6.4 11.3 0.00 0.00 0.00 83 1016.0
20260901000704 26 168 3.2 9.7 0.00 0.00 0.00 82 1016.1
20260831235205 26 126 4.8 12.9 0.00 0.00 0.00 83 1016.1
20260831234705 26 132 4.8 12.9 0.00 0.00 0.00 83 1016.0
20260831234204 26 125 4.8 9.7 0.00 0.00 0.00 82 1016.2
20260831233704 27 96 6.4 11.3 0.00 0.00 0.00 82 1016.2
20260831233205 27 93 6.4 11.3 0.00 0.00 0.00 84 1016.2
20260831232704 27 106 8.0 20.9 0.00 0.00 0.00 83 1016.3
20260831232204 27 38 3.2 4.8 0.00 0.00 0.00 81 1016.3
20260831231705 27 58 3.2 4.8 0.00 0.00 0.00 81 1016.2
20260831231205 27 100 3.2 4.8 0.00 0.00 0.00 80 1016.3
20260831230705 27 29 0.0 3.2 0.00 0.00 0.00 80 1016.5
20260831230204 27 29 0.0 1.6 0.00 0.00 0.00 81 1016.5
20260831225704 27 29 0.0 1.6 0.00 0.00 0.00 80 1016.5
20260831225205 27 29 1.6 1.6 0.00 0.00 0.00 79 1016.4
20260831224705 28 355 0.0 1.6 0.00 0.00 0.00 79 1016.5
20260831224204 28 348 0.0 0.0 0.00 0.00 0.00 79 1016.5
20260831223704 28 348 0.0 0.0 0.00 0.00 0.00 78 1016.5
20260831223205 28 348 0.0 0.0 0.00 0.00 0.00 78 1016.4
20260831222705 28 348 0.0 0.0 0.00 0.00 0.00 78 1016.5
20260831222205 28 348 0.0 0.0 0.00 0.00 0.00 77 1016.6
20260831221704 28 348 0.0 1.6 0.00 0.00 0.00 76 1016.7
20260831221204 28 348 0.0 3.2 0.00 0.00 0.00 76 1016.8
20260831220704 28 352 1.6 4.8 0.00 0.00 0.00 75 1016.7
20260831220205 29 356 0.0 1.6 0.00 0.00 0.00 75 1016.7
20260831215705 29 348 1.6 3.2 0.00 0.00 0.00 75 1016.7
20260831215204 29 0 3.2 4.8 0.00 0.00 0.00 74 1016.7
20260831214704 29 39 3.2 4.8 0.00 0.00 0.00 74 1016.6
20260831214204 29 33 3.2 8.0 0.00 0.00 0.00 75 1016.7
20260831213704 29 49 3.2 4.8 0.00 0.00 0.00 74 1016.8
20260831211204 30 49 3.2 4.8 0.00 0.00 0.00 72 1016.6
20260831210704 30 56 3.2 4.8 0.00 0.00 0.00 71 1016.5
20260831210205 30 23 3.2 4.8 0.00 0.00 0.00 71 1016.4
20260831205705 30 263 1.6 4.8 0.00 0.00 0.00 69 1016.3
20260831205205 30 72 0.0 3.2 0.00 0.00 0.00 69 1016.3
20260831204704 30 290 1.6 4.8 0.00 0.00 0.00 69 1016.3
20260831203204 30 325 1.6 4.8 0.00 0.00 0.00 71 1016.3
20260831202704 30 29 1.6 4.8 0.00 0.00 0.00 74 1016.3
20260831202204 30 338 1.6 8.0 0.00 0.00 0.00 73 1016.3
20260831201704 30 321 4.8 8.0 0.00 0.00 0.00 73 1016.4
20260831201204 30 233 1.6 4.8 0.00 0.00 0.00 74 1016.4
20260831200204 29 305 3.2 4.8 0.00 0.00 0.00 72 1016.4
20260831195704 29 27 1.6 4.8 0.00 0.00 0.00 73 1016.4
20260831195204 29 31 1.6 4.8 0.00 0.00 0.00 75 1016.4
20260831194704 29 359 4.8 8.0 0.00 0.00 0.00 73 1016.6
20260831194205 29 37 3.2 8.0 0.00 0.00 0.00 73 1016.7
20260831193704 29 358 1.6 4.8 0.00 0.00 0.00 74 1016.8
20260831193204 30 11 4.8 8.0 0.00 0.00 0.00 70 1016.7
20260831192704 30 353 4.8 9.7 0.00 0.00 0.00 71 1016.8
20260831192204 30 14 4.8 9.7 0.00 0.00 0.00 72 1016.8
20260831191704 30 53 3.2 9.7 0.00 0.00 0.00 72 1016.8
20260831191204 30 36 3.2 8.0 0.00 0.00 0.00 72 1016.9
20260831190704 30 50 4.8 8.0 0.00 0.00 0.00 72 1017.0
20260831190205 30 32 4.8 8.0 0.00 0.00 0.00 72 1017.1
20260831185705 30 54 8.0 11.3 0.00 0.00 0.00 74 1017.0
20260831185205 30 52 4.8 9.7 0.00 0.00 0.00 74 1017.0
20260831184705 30 54 4.8 8.0 0.00 0.00 0.00 72 1017.1
20260831184204 30 11 3.2 9.7 0.00 0.00 0.00 71 1017.1
20260831183204 31 299 3.2 8.0 0.00 0.00 0.00 69 1017.0
20260831182704 31 337 4.8 9.7 0.00 0.00 0.00 72 1017.0
20260831182205 31 15 4.8 11.3 0.00 0.00 0.00 74 1017.0
20260831181704 30 352 3.2 4.8 0.00 0.00 0.00 73 1017.0
20260831181204 30 347 4.8 14.5 0.00 0.00 0.00 75 1017.0
20260831180205 30 334 3.2 12.9 0.00 0.00 0.00 72 1017.1
20260831175704 30 16 3.2 16.1 0.00 0.00 0.00 74 1017.2
20260831175204 30 69 9.7 16.1 0.00 0.00 0.00 73 1017.2
20260831174704 30 56 3.2 8.0 0.00 0.00 0.00 73 1017.2
20260831173705 30 28 4.8 9.7 0.00 0.00 0.00 75 1017.2
20260831173204 30 354 3.2 9.7 0.00 0.00 0.00 76 1017.2
20260831172704 30 7 3.2 9.7 0.00 0.00 0.00 74 1017.3
20260831172204 30 49 3.2 9.7 0.00 0.00 0.00 76 1017.3
20260831171205 30 32 4.8 8.0 0.00 0.00 0.00 77 1017.3
20260831170704 30 304 3.2 4.8 0.00 0.00 0.00 73 1017.4
20260831170204 30 358 4.8 9.7 0.00 0.00 0.00 73 1017.5
20260831165704 30 21 6.4 12.9 0.00 0.00 0.00 72 1017.5
20260831165204 30 14 1.6 4.8 0.00 0.00 0.00 70 1017.5
20260831164704 30 77 1.6 4.8 0.00 0.00 0.00 69 1017.5
20260831164204 30 147 1.6 4.8 0.00 0.00 0.00 70 1017.4
20260831163704 30 43 3.2 9.7 0.00 0.00 0.00 70 1017.4
20260831163205 30 61 4.8 11.3 0.00 0.00 0.00 71 1017.4
20260831162204 30 48 4.8 9.7 0.00 0.00 0.00 74 1017.5
20260831161704 30 54 6.4 11.3 0.00 0.00 0.00 74 1017.5
20260831160704 30 46 4.8 12.9 0.00 0.00 0.00 75 1017.6
20260831160204 30 106 8.0 11.3 0.00 0.00 0.00 76 1017.6
20260831155704 29 79 8.0 12.9 0.00 0.00 0.00 75 1017.6
20260831155205 29 73 3.2 9.7 0.00 0.00 0.00 76 1017.7
20260831154204 29 28 6.4 16.1 0.00 0.00 0.00 77 1017.7
20260831153704 29 84 4.8 14.5 0.00 0.00 0.00 77 1017.8
20260831153204 29 53 4.8 14.5 0.00 0.00 0.00 76 1017.7
20260831152204 28 62 9.7 16.1 0.00 0.00 0.00 78 1017.6
20260831151704 28 67 11.3 16.1 0.00 0.00 0.00 79 1017.5
20260831151204 29 82 9.7 16.1 0.00 0.00 0.00 78 1017.5
20260831150704 29 57 9.7 16.1 0.00 0.00 0.00 78 1017.5
20260831150205 28 61 9.7 19.3 0.00 0.00 0.00 80 1017.5
20260831145704 28 108 9.7 19.3 0.00 0.00 0.00 79 1017.6
20260831145204 28 85 12.9 20.9 0.00 0.00 0.00 80 1017.6
20260831144204 28 89 11.3 19.3 0.00 0.00 0.00 80 1017.6
20260831143705 28 75 9.7 16.1 0.00 0.00 0.00 80 1017.6
20260831143205 28 71 11.3 16.1 0.00 0.00 0.00 81 1017.7
20260831142204 28 71 9.7 14.5 0.00 0.00 0.00 82 1017.6
20260831141704 27 61 8.0 16.1 0.00 0.00 0.00 82 1017.6
20260831141204 27 70 9.7 14.5 0.00 0.00 0.00 82 1017.6
20260831140704 27 85 11.3 16.1 0.00 0.00 0.00 81 1017.7
20260831135704 27 59 8.0 16.1 0.00 0.00 0.00 82 1017.7
20260831135204 27 78 9.7 19.3 0.00 0.00 0.00 84 1017.5
20260831134704 27 61 9.7 14.5 0.00 0.00 0.00 85 1017.5
20260831133704 26 126 8.0 12.9 0.00 0.00 0.00 87 1017.5
20260831133204 26 113 6.4 11.3 0.00 0.00 0.00 88 1017.5
20260831132704 26 69 8.0 9.7 0.00 0.00 0.00 88 1017.6
20260831132204 26 60 6.4 11.3 0.00 0.00 0.00 88 1017.6
20260831131204 26 59 8.0 12.9 0.00 0.00 0.00 90 1017.6
20260831130704 26 73 8.0 9.7 0.00 0.00 0.00 90 1017.6
20260831130204 26 81 6.4 11.3 0.00 0.00 0.00 92 1017.6
20260831125204 25 58 8.0 9.7 0.00 0.00 0.00 92 1017.7
20260831124704 25 58 4.8 12.9 0.00 0.00 0.00 93 1017.6
20260831124204 25 58 11.3 19.3 0.00 0.00 0.00 94 1017.6
20260831123704 25 66 4.8 12.9 0.00 0.00 0.00 94 1017.6
20260831123204 25 46 6.4 11.3 0.00 0.00 0.00 94 1017.7
20260831122704 25 18 6.4 14.5 0.00 0.00 0.00 94 1017.6
20260831122204 25 62 3.2 4.8 0.00 0.00 0.00 95 1017.5
20260831121704 25 65 3.2 4.8 0.00 0.00 0.00 95 1017.6
20260831121204 25 89 3.2 4.8 0.00 0.00 0.00 95 1017.5
20260831120704 25 56 3.2 4.8 0.00 0.00 0.00 95 1017.4
20260831120204 24 15 1.6 4.8 0.00 0.00 0.00 95 1017.5
20260831115704 24 15 3.2 4.8 0.00 0.00 0.00 95 1017.4
20260831114704 24 65 1.6 3.2 0.00 0.00 0.00 94 1017.2
20260831114204 23 65 0.0 1.6 0.00 0.00 0.00 94 1017.1
20260831113203 23 65 3.2 4.8 0.00 0.00 0.00 94 1017.0
20260831112204 23 128 0.0 0.0 0.00 0.00 0.00 94 1016.9
20260831111704 23 128 1.6 3.2 0.00 0.00 0.00 94 1017.0
20260831110704 23 32 0.0 3.2 0.00 0.00 0.00 93 1016.8
20260831110204 23 32 0.0 0.0 0.00 0.00 0.00 93 1016.9
20260831105704 23 32 0.0 0.0 0.00 0.00 0.00 93 1016.7
20260831105204 23 32 0.0 1.6 0.00 0.00 0.00 93 1016.6
20260831104704 23 32 1.6 3.2 0.00 0.00 0.00 93 1016.6
20260831104204 23 32 1.6 3.2 0.00 0.00 0.00 93 1016.5
20260831103703 23 32 1.6 1.6 0.00 0.00 0.00 93 1016.5
20260831103204 23 32 1.6 3.2 0.00 0.00 0.00 93 1016.4
20260831102204 23 42 0.0 3.2 0.00 0.00 0.00 93 1016.3
20260831101204 23 42 1.6 3.2 0.00 0.00 0.00 93 1016.3
20260831100704 23 42 3.2 4.8 0.00 0.00 0.00 93 1016.3
20260831100204 23 352 0.0 1.6 0.00 0.00 0.00 93 1016.3
20260831095704 23 352 1.6 3.2 0.00 0.00 0.00 93 1016.2
20260831095204 23 352 0.0 0.0 0.00 0.00 0.00 93 1016.2
20260831094705 23 352 0.0 1.6 0.00 0.00 0.00 93 1016.2
20260831094205 23 352 0.0 0.0 0.00 0.00 0.00 93 1016.3
20260831093705 23 352 0.0 0.0 0.00 0.00 0.00 93 1016.4
20260831092705 23 352 0.0 0.0 0.00 0.00 0.00 93 1016.4
20260831092206 23 352 1.6 4.8 0.00 0.00 0.00 93 1016.5
20260831091705 23 354 3.2 4.8 0.00 0.00 0.00 93 1016.2
20260831091205 23 44 0.0 1.6 0.00 0.00 0.00 93 1016.1
20260831090705 23 15 0.0 1.6 0.00 0.00 0.00 93 1016.2
20260831090205 23 15 0.0 0.0 0.00 0.00 0.00 93 1016.3
20260831084705 23 15 0.0 3.2 0.00 0.00 0.00 92 1016.5
20260831084205 23 63 0.0 0.0 0.00 0.00 0.00 92 1016.3
20260831083706 23 63 0.0 0.0 0.00 0.00 0.00 92 1016.2
20260831083206 23 63 0.0 0.0 0.00 0.00 0.00 92 1016.2
20260831082705 23 63 0.0 0.0 0.00 0.00 0.00 92 1016.3
20260831082205 23 63 0.0 0.0 0.00 0.00 0.00 92 1016.4